Location: Newark
(30.1000°N, 109.4667°E)
Time: 12:16:32
(UTC+00:00)

Vanguard 2 Rocket - Pass Details

Date: 26 February 2020
Orbit: 554 x 3326 km, 32.9° (Epoch: 05 April)

Event Time Altitude Azimuth Distance (km) Brightness Sun altitude
Rises 14:32:59 0° 278° (W) 7,093 12.0 -50.6°
Reaches altitude 10° 14:38:11 10° 280° (W) 5,825 11.4 -51.6°
Enters shadow 14:50:27 52° 288° (WNW) 2,752 9.2 -53.9°
